This demonstration page uses our WeatherBlox Daily Observations layout. Learn more.

Left ArrowRight Arrow

Hourly Observations for March 22, 2015

Temp ( °F °C ) Dew Point ( °F °C ) Humidity (%) Winds ( mph kmh ) Pressure ( in mb ) Visibility ( mi km ) Precip ( " mm )
12:53 am 00:53 Clear 60 15.6 46 7.8 60 60 Calm 30.03 1017 10 16 0.00 0.00
1:53 am 01:53 Mostly Clear 59 15 48 8.9 67 67 WSW 3 6 30.03 1017 10 16 0.00 0.00
2:53 am 02:53 Cloudy 60 15.6 47 8.3 62 62 WNW 3 6 30.03 1017 10 16 0.00 0.00
3:53 am 03:53 Mostly Cloudy 60 15.6 48 8.9 65 65 SW 6 9 30.02 1017 10 16 0.00 0.00
4:53 am 04:53 Cloudy 60 15.6 50 10 70 70 S 7 11 30.03 1017 10 16 0.00 0.03
5:53 am 05:53 Mostly Cloudy 57 13.9 50 10 78 78 VRB 5 7 30.05 1018 10 16 0.00 0.03
6:53 am 06:53 Cloudy with Light Rain 56 13.3 51 10.6 84 84 NW 5 7 30.06 1018 10 16 0.02 0.51
7:53 am 07:53 Cloudy 56 13.3 52 11.1 87 87 WNW 3 6 30.06 1018 10 16 0.00 0.03
8:53 am 08:53 Mostly Cloudy 58 14.4 51 10.6 78 78 SW 3 6 30.07 1018 10 16 0.00 0.00
9:53 am 09:53 Cloudy 59 15 49 9.4 69 69 SSW 5 7 30.08 1019 10 16 0.00 0.00
10:53 am 10:53 Cloudy with Light Rain 60 15.6 52 11.1 75 75 SSW 9 15 30.09 1019 7 11 0.00 0.03
11:53 am 11:53 Cloudy 61 16.1 53 11.7 75 75 S 12 19 30.07 1018 10 16 0.02 0.51
12:53 pm 12:53 Mostly Cloudy 67 19.4 52 11.1 59 59 S 13 20 30.04 1017 10 16 0.00 0.00
1:53 pm 13:53 Cloudy 67 19.4 51 10.6 57 57 S 15 24 30.02 1017 10 16 0.00 0.00
2:49 pm 14:49 Mostly Cloudy with Nearby Thunderstorms 68 20 50 10 53 53 S 25 41 29.94 1014 10 16 0.00 0.00
2:53 pm 14:53 Mostly Cloudy with Nearby Thunderstorms 69 20.6 50 10 51 51 S 22 35 29.97 1015 10 16 0.00 0.00
3:45 pm 15:45 Mostly Cloudy 67 19.4 50 10 55 55 S 22 35 29.94 1014 10 16 0.00 0.00
3:53 pm 15:53 Mostly Cloudy 66 18.9 49 9.4 54 54 S 22 35 29.97 1015 10 16 0.00 0.00
4:53 pm 16:53 Partly Cloudy 62 16.7 49 9.4 62 62 S 14 22 29.95 1014 10 16 0.00 0.00
5:07 pm 17:07 Mostly Cloudy with Nearby Thunderstorms 62 16.7 50 10 65 65 SSE 15 24 29.94 1014 10 16 0.00 0.00
5:22 pm 17:22 Cloudy with Strong Thunderstorms 57 14 50 10 77 77 WSW 21 33 30.00 1016 6 10 0.00 0.00
5:32 pm 17:32 Cloudy with Nearby Thunderstorms 55 13 52 11 88 88 WNW 9 15 30.03 1017 3 5 0.00 0.00
5:38 pm 17:38 Cloudy with Strong Thunderstorms 55 13 52 11 88 88 NNW 9 15 30.03 1017 3 4 0.00 0.00
5:53 pm 17:53 Cloudy with Nearby Thunderstorms 53 11.7 50 10 89 89 NNW 5 7 30.03 1017 2 2 0.30 7.62
6:01 pm 18:01 Cloudy with Nearby Thunderstorms 53 11.7 50 10 89 89 NE 7 11 30.03 1017 3 5 0.04 1.02
6:21 pm 18:21 Cloudy 54 12.2 50 10 87 87 Calm 30.03 1017 10 16 0.06 1.52
6:53 pm 18:53 Cloudy with Light Rain 53 11.7 50 10 89 89 E 7 11 30.03 1017 10 16 0.07 1.78
7:53 pm 19:53 Mostly Clear 52 11.1 49 9.4 89 89 NE 9 15 30.04 1017 10 16 0.00 0.03
8:53 pm 20:53 Clear 52 11.1 50 10 93 93 Calm 30.07 1018 10 16 0.00 0.00
9:53 pm 21:53 Cloudy 52 11.1 50 10 93 93 WNW 3 6 30.07 1018 10 16 0.00 0.00
10:53 pm 22:53 Cloudy 52 11.1 50 10 93 93 WNW 3 6 30.07 1018 10 16 0.00 0.00
11:53 pm 23:53 Cloudy 52 11.1 50 10 93 93 W 3 6 30.08 1019 10 16 0.00 0.00

Powered by AerisWeather